KE0TRL Weather Reports


time (UTC)temp
C
wind
direction
speed
KPH
gust
KPH
rain 1hr
cm
rain 24hr
cm
rain mn
cm
humidity
%
barometer
mb
20260831033902 27 158 0.0 0.0 0.00 0.00 0.00 75 1007.8
20260831032802 27 158 0.0 0.0 0.00 0.00 0.00 75 1007.8
20260831031702 27 135 0.0 0.0 0.00 0.00 0.00 75 1007.8
20260831030402 27 158 0.0 0.0 0.00 0.00 0.00 74 1007.8
20260831025306 27 135 0.0 0.0 0.00 0.00 0.00 73 1007.8
20260831023702 28 158 0.0 0.0 0.00 0.00 0.00 71 1007.8
20260831022402 28 158 0.0 0.0 0.00 0.00 0.00 71 1008.1
20260831014902 28 158 0.0 0.0 0.00 0.00 0.00 70 1007.5
20260831013702 28 113 0.0 0.0 0.00 0.00 0.00 70 1007.1
20260831012602 29 158 0.0 0.0 0.00 0.00 0.00 68 1007.1
20260831011502 30 135 0.0 0.0 0.00 0.00 0.00 66 1007.5
20260831010302 30 135 0.0 0.0 0.00 0.00 0.00 66 1007.1
20260831005202 30 158 0.0 0.0 0.00 0.00 0.00 65 1007.1
20260831004102 31 135 0.0 0.0 0.00 0.00 0.00 63 1007.1
20260831003004 31 158 0.0 0.0 0.00 0.00 0.00 63 1007.1
20260831001802 32 158 1.6 1.6 0.00 0.00 0.00 61 1007.1
20260831000702 32 90 3.2 3.2 0.00 0.00 0.00 60 1007.1
20260830235602 32 135 1.6 6.4 0.00 0.00 0.00 56 1007.1
20260830234502 32 158 3.2 3.2 0.00 0.00 0.00 56 1007.1
20260830233302 32 45 6.4 9.7 0.00 0.00 0.00 55 1007.5
20260830232202 33 158 4.8 6.4 0.00 0.00 0.00 55 1007.1
20260830231003 33 225 3.2 3.2 0.00 0.00 0.00 55 1007.1
20260830225902 33 113 3.2 3.2 0.00 0.00 0.00 55 1007.1
20260830224702 33 90 12.9 12.9 0.00 0.00 0.00 55 1007.1
20260830222402 33 158 6.4 9.7 0.00 0.00 0.00 54 1007.1
20260830221302 33 23 8.0 11.3 0.00 0.00 0.00 53 1006.8
20260830220202 33 113 4.8 9.7 0.00 0.00 0.00 53 1006.8
20260830215102 34 203 3.2 8.0 0.00 0.00 0.00 54 1006.8
20260830214002 33 158 3.2 8.0 0.00 0.00 0.00 54 1006.8
20260830212902 33 135 3.2 9.7 0.00 0.00 0.00 54 1006.8
20260830211802 33 90 14.5 14.5 0.00 0.00 0.00 54 1006.8
20260830210702 33 135 6.4 11.3 0.00 0.00 0.00 54 1006.8
20260830205602 31 135 6.4 9.7 0.00 0.00 0.00 55 1007.5
20260830204502 31 113 9.7 11.3 0.00 0.00 0.00 55 1007.5
20260830203302 31 135 4.8 9.7 0.00 0.00 0.00 55 1007.1
20260830202202 32 113 9.7 9.7 0.00 0.00 0.00 55 1007.5
20260830201002 31 180 3.2 8.0 0.00 0.00 0.00 58 1007.1
20260830195902 32 113 9.7 9.7 0.00 0.00 0.00 56 1007.5
20260830194902 31 113 9.7 9.7 0.00 0.00 0.00 59 1007.5
20260830193802 31 113 8.0 11.3 0.00 0.00 0.00 55 1007.8
20260830192702 31 158 6.4 12.9 0.00 0.00 0.00 55 1007.8
20260830191602 31 135 8.0 9.7 0.00 0.00 0.00 55 1007.8
20260830190402 31 180 3.2 6.4 0.00 0.00 0.00 55 1007.1
20260830184203 31 248 3.2 9.7 0.00 0.00 0.00 55 1007.5
20260830183102 30 135 4.8 8.0 0.00 0.00 0.00 59 1007.5
20260830182003 30 68 4.8 9.7 0.00 0.00 0.00 60 1007.8
20260830175802 29 68 11.3 11.3 0.00 0.00 0.00 59 1008.1
20260830174702 29 113 4.8 11.3 0.00 0.00 0.00 59 1007.8
20260830173603 30 203 3.2 11.3 0.00 0.00 0.00 55 1007.8
20260830172402 29 113 6.4 12.9 0.00 0.00 0.00 59 1008.1
20260830171302 29 113 3.2 9.7 0.00 0.00 0.00 59 1008.1
20260830165002 29 270 12.9 14.5 0.00 0.00 0.00 58 1007.8
20260830163902 29 180 4.8 9.7 0.00 0.00 0.00 56 1007.8
20260830162702 29 0 6.4 11.3 0.00 0.00 0.00 59 1007.8
20260830160402 27 113 3.2 8.0 0.00 0.00 0.00 63 1007.8
20260830155306 27 113 9.7 9.7 0.00 0.00 0.00 63 1007.8
20260830154202 27 135 4.8 8.0 0.00 0.00 0.00 63 1007.8
20260830153102 27 158 3.2 6.4 0.00 0.00 0.00 65 1007.8
20260830152002 27 203 6.4 8.0 0.00 0.00 0.00 63 1007.8
20260830145702 27 158 1.6 4.8 0.00 0.00 0.00 65 1007.5
20260830144502 27 225 4.8 4.8 0.00 0.00 0.00 65 1007.5
20260830142305 26 270 1.6 3.2 0.00 0.00 0.00 69 1007.8
20260830141202 25 158 4.8 6.4 0.00 0.00 0.00 68 1007.5
20260830140003 25 90 3.2 6.4 0.00 0.00 0.00 68 1007.8
20260830134903 25 135 4.8 11.3 0.00 0.00 0.00 68 1007.8
20260830133702 25 158 3.2 3.2 0.00 0.00 0.00 69 1007.5
20260830132702 25 158 4.8 6.4 0.00 0.00 0.00 69 1007.5
20260830131602 25 90 1.6 6.4 0.00 0.00 0.00 69 1007.8
20260830130502 25 180 1.6 6.4 0.00 0.00 0.00 69 1007.8
20260830125305 25 180 3.2 4.8 0.00 0.00 0.00 69 1007.8
20260830123102 25 180 4.8 4.8 0.00 0.00 0.00 68 1007.8
20260830122002 25 180 4.8 4.8 0.00 0.00 0.00 68 1007.5
20260830115802 25 225 3.2 6.4 0.00 0.00 0.00 68 1007.8
20260830114602 25 225 1.6 3.2 0.00 0.00 0.00 66 1007.5
20260830113502 25 135 3.2 4.8 0.00 0.00 0.00 68 1007.5
20260830112402 25 203 1.6 3.2 0.00 0.00 0.00 68 1007.8
20260830111202 25 113 0.0 3.2 0.00 0.00 0.00 68 1007.8
20260830103802 25 158 3.2 6.4 0.00 0.00 0.00 65 1007.8
20260830102702 25 135 3.2 4.8 0.00 0.00 0.00 66 1008.1
20260830101602 25 113 4.8 6.4 0.00 0.00 0.00 66 1008.5
20260830100502 26 180 1.6 4.8 0.00 0.00 0.00 65 1008.5
20260830095305 26 135 9.7 9.7 0.00 0.00 0.00 65 1008.5
20260830094202 26 113 6.4 8.0 0.00 0.00 0.00 65 1008.1
20260830093003 26 135 6.4 6.4 0.00 0.00 0.00 66 1008.1
20260830091902 25 158 8.0 11.3 0.00 0.00 0.00 68 1008.1
20260830090802 25 113 3.2 4.8 0.00 0.00 0.00 69 1007.8
20260830084601 25 225 3.2 6.4 0.00 0.00 0.00 69 1007.5
20260830083503 25 180 4.8 4.8 0.00 0.00 0.00 69 1007.5
20260830082403 25 158 4.8 4.8 0.00 0.00 0.00 69 1007.8
20260830081402 25 90 3.2 3.2 0.00 0.00 0.00 69 1007.5
20260830072903 25 180 3.2 4.8 0.00 0.00 0.00 68 1007.5
20260830071702 26 180 6.4 9.7 0.00 0.00 0.00 68 1007.8
20260830070602 26 135 3.2 9.7 0.00 0.00 0.00 68 1007.8
20260830065502 26 23 3.2 4.8 0.00 0.00 0.00 66 1007.5
20260830064402 26 158 8.0 11.3 0.00 0.00 0.00 66 1007.5
20260830063102 26 135 6.4 8.0 0.00 0.00 0.00 66 1007.8
20260830062003 26 225 4.8 6.4 0.00 0.00 0.00 66 1007.8
20260830060802 26 158 4.8 8.0 0.00 0.00 0.00 66 1007.8
20260830055702 26 113 1.6 6.4 0.00 0.00 0.00 66 1007.8
20260830054502 27 158 3.2 9.7 0.00 0.00 0.00 65 1007.8
20260830053402 27 293 8.0 8.0 0.00 0.00 0.00 65 1007.8
20260830052302 27 180 3.2 4.8 0.00 0.00 0.00 65 1007.8
20260830051202 27 135 14.5 14.5 0.00 0.00 0.00 65 1007.5
20260830050004 27 158 4.8 8.0 0.00 0.00 0.00 65 1007.5
20260830045202 27 225 6.4 6.4 0.00 0.00 0.00 65 1007.8
20260830044102 27 158 3.2 3.2 0.00 0.00 0.00 65 1007.5
20260830041802 28 158 4.8 9.7 0.00 0.00 0.00 65 1007.5
20260830040702 28 135 6.4 11.3 0.00 0.00 0.00 65 1007.8
20260830035502 28 113 9.7 11.3 0.00 0.00 0.00 65 1007.8